Location: Asheville, NC
(35.6000°N, 82.5500°W)
Time: 03:24:13
(UTC-04:00)

Vanguard 1 - Pass Details

Date: 13 March 2018
Orbit: 650 x 3833 km, 34.3° (Epoch: 19 June)

Event Time Altitude Azimuth Distance (km) Brightness Sun altitude
Rises 15:01:32 0° 283° (WNW) 7,932 14.9 47.2°
Reaches altitude 10° 15:07:17 10° 281° (WNW) 6,745 14.6 46.5°
Maximum altitude 15:27:58 69° 204° (SSW) 2,762 13.8 44.1°
Drops below altitude 10° 15:39:37 10° 124° (SE) 4,061 13.2 42.5°
Sets 15:42:10 0° 121° (ESE) 4,736 13.5 42.2°
